| time (UTC) | temp F | wind direction | speed MPH | gust MPH | rain 1hr in | rain 24hr in | rain mn in | humidity % | barometer mb |
| 20260503011509 | 70 | 126 | 0.0 | 0.0 | 0.00 | 0.00 | 0.00 | 41 | 1019.0 |
| 20260503010009 | 71 | 126 | 0.0 | 0.0 | 0.00 | 0.00 | 0.00 | 38 | 1018.8 |
| 20260503004509 | 73 | 126 | 0.0 | 0.0 | 0.00 | 0.00 | 0.00 | 35 | 1018.7 |
| 20260503003008 | 74 | 136 | 0.0 | 0.0 | 0.00 | 0.00 | 0.00 | 34 | 1018.5 |
| 20260503001508 | 75 | 219 | 0.0 | 0.0 | 0.00 | 0.00 | 0.00 | 32 | 1018.5 |
| 20260503000014 | 76 | 219 | 0.0 | 3.0 | 0.00 | 0.00 | 0.00 | 30 | 1018.4 |
| 20260502224533 | 80 | 323 | 0.0 | 3.0 | 0.00 | 0.00 | 0.00 | 28 | 1018.9 |
| 20260502223033 | 80 | 250 | 1.0 | 3.0 | 0.00 | 0.00 | 0.00 | 29 | 1019.0 |
| 20260502221531 | 80 | 259 | 0.0 | 4.0 | 0.00 | 0.00 | 0.00 | 29 | 1018.8 |
| 20260502220031 | 79 | 7 | 0.0 | 0.0 | 0.00 | 0.00 | 0.00 | 30 | 1018.9 |
| 20260502214528 | 78 | 341 | 0.0 | 6.0 | 0.00 | 0.00 | 0.00 | 29 | 1019.2 |
| 20260502213030 | 79 | 226 | 0.0 | 3.0 | 0.00 | 0.00 | 0.00 | 27 | 1019.3 |
| 20260502211512 | 78 | 334 | 0.0 | 4.0 | 0.00 | 0.00 | 0.00 | 28 | 1019.5 |
| 20260502210111 | 79 | 270 | 0.0 | 3.0 | 0.00 | 0.00 | 0.00 | 30 | 1019.7 |
| 20260502204539 | 78 | 20 | 0.0 | 3.0 | 0.00 | 0.00 | 0.00 | 31 | 1019.8 |
| 20260502201531 | 79 | 345 | 0.0 | 3.0 | 0.00 | 0.00 | 0.00 | 30 | 1020.4 |
| 20260502200027 | 78 | 319 | 0.0 | 3.0 | 0.00 | 0.00 | 0.00 | 30 | 1020.5 |
| 20260502194521 | 77 | 77 | 0.0 | 2.0 | 0.00 | 0.00 | 0.00 | 29 | 1020.7 |
| 20260502193022 | 78 | 330 | 0.0 | 1.0 | 0.00 | 0.00 | 0.00 | 32 | 1020.8 |
| 20260502191521 | 77 | 322 | 0.0 | 2.0 | 0.00 | 0.00 | 0.00 | 29 | 1020.9 |
| 20260502190017 | 77 | 139 | 0.0 | 3.0 | 0.00 | 0.00 | 0.00 | 29 | 1021.0 |
| 20260502184600 | 77 | 349 | 0.0 | 5.0 | 0.00 | 0.00 | 0.00 | 32 | 1021.2 |
| 20260502183059 | 75 | 147 | 1.0 | 4.0 | 0.00 | 0.00 | 0.00 | 30 | 1021.5 |
| 20260502181556 | 76 | 6 | 0.0 | 3.0 | 0.00 | 0.00 | 0.00 | 31 | 1021.7 |
| 20260502151556 | 71 | 340 | 0.0 | 2.0 | 0.00 | 0.00 | 0.00 | 45 | 1022.4 |
| 20260502150105 | 69 | 18 | 0.0 | 1.0 | 0.00 | 0.00 | 0.00 | 50 | 1022.3 |
| 20260502123011 | 53 | 264 | 0.0 | 0.0 | 0.00 | 0.00 | 0.00 | 90 | 1021.0 |
| 20260502121510 | 0 | 0.0 | 0.0 | 0.00 | 0.00 | 0.00 | 1020.6 | ||
| 20260502114554 | 0 | 0.0 | 0.0 | 0.00 | 0.00 | 0.00 | 1020.0 | ||
| 20260502113050 | 0 | 0.0 | 0.0 | 0.00 | 0.00 | 0.00 | 1019.9 | ||
| 20260502111550 | 0 | 0.0 | 0.0 | 0.00 | 0.00 | 0.00 | 1019.7 | ||
| 20260502110041 | 0 | 0.0 | 0.0 | 0.00 | 0.00 | 0.00 | 1019.6 | ||
| 20260502104536 | 0 | 0.0 | 0.0 | 0.00 | 0.00 | 0.00 | 1019.8 | ||
| 20260502103035 | 0 | 0.0 | 0.0 | 0.00 | 0.00 | 0.00 | 1019.5 | ||
| 20260502101553 | 47 | 228 | 0.0 | 0.0 | 0.00 | 0.00 | 0.00 | 93 | 1019.5 |
| 20260502091524 | 50 | 229 | 0.0 | 0.0 | 0.00 | 0.00 | 0.00 | 91 | 1019.3 |
| 20260502071509 | 50 | 95 | 0.0 | 0.0 | 0.00 | 0.00 | 0.00 | 90 | 1019.2 |
| 20260502070008 | 51 | 95 | 0.0 | 0.0 | 0.00 | 0.00 | 0.00 | 89 | 1019.2 |
| 20260502064515 | 51 | 95 | 0.0 | 0.0 | 0.00 | 0.00 | 0.00 | 89 | 1019.4 |
| 20260502063008 | 51 | 95 | 0.0 | 0.0 | 0.00 | 0.00 | 0.00 | 88 | 1019.4 |
| 20260502061502 | 52 | 95 | 0.0 | 0.0 | 0.00 | 0.00 | 0.00 | 88 | 1019.4 |
| 20260502060101 | 52 | 95 | 0.0 | 0.0 | 0.00 | 0.00 | 0.00 | 89 | 1019.1 |
| 20260502060003 | 52 | 95 | 0.0 | 0.0 | 0.00 | 0.00 | 0.00 | 89 | 1019.2 |
| 20260502050050 | 53 | 95 | 0.0 | 0.0 | 0.00 | 0.00 | 0.00 | 83 | 1019.2 |
| 20260502044548 | 54 | 95 | 0.0 | 0.0 | 0.00 | 0.00 | 0.00 | 82 | 1019.1 |
| 20260502043047 | 54 | 95 | 0.0 | 0.0 | 0.00 | 0.00 | 0.00 | 82 | 1019.1 |
| 20260502041552 | 54 | 95 | 0.0 | 0.0 | 0.00 | 0.00 | 0.00 | 81 | 1018.9 |
| 20260502040042 | 55 | 95 | 0.0 | 0.0 | 0.00 | 0.00 | 0.00 | 78 | 1018.9 |
| 20260502034539 | 56 | 95 | 0.0 | 0.0 | 0.00 | 0.00 | 0.00 | 76 | 1019.1 |
| 20260502033040 | 57 | 95 | 0.0 | 0.0 | 0.00 | 0.00 | 0.00 | 73 | 1019.0 |
| 20260502031528 | 58 | 95 | 0.0 | 0.0 | 0.00 | 0.00 | 0.00 | 72 | 1018.7 |
| 20260502030028 | 58 | 95 | 0.0 | 0.0 | 0.00 | 0.00 | 0.00 | 76 | 1018.7 |
| 20260502014600 | 60 | 82 | 0.0 | 1.0 | 0.00 | 0.00 | 0.00 | 72 | 1017.6 |
| 20260502013101 | 60 | 98 | 0.0 | 0.0 | 0.00 | 0.00 | 0.00 | 71 | 1017.3 |